CZ-2D DEB, 44609

Orbit data source: Space-Track

CZ-2D DEB, 44609 is space debris in SSO originally from a launch on Mon, 09 Oct 2017 UTC launched from the Jiuquan Satellite Launch Center, China (JSC). Debris objects in space refer to the collection of defunct objects orbiting the Earth. Examples of debris include non-operational satellites, rocket bodies, and fragments generated from explosions, collisions, or faulty payload assembly.

Loading next visibility...
Identifier
44609, 2017-060B
Orbit
SSO
Last TLE update
2 days ago
Origin
Manufacturer
Unknown
Mission
Spacecraft
Bus & Motor
Unknown
Mass
Unknown
Launch date (UTC)
2017-10-09 (8 years ago)
Launch vehicle
Unknown
Launch site
Jiuquan Satellite Launch Center, China (JSC)
Object type
Payload
Rocket body
Debris
Shape & HBR
Unknown
Radar Cross Section
Small (<0.1 m²)

Expand to show TLE details & history

TLE from 2 days ago
0 CZ-2D DEB
1 44609U 17060B   25128.58994053  .00005206  00000-0  47032-3 0  9990
2 44609  97.5628 155.2464 0033273 229.1439 130.6898 14.95475985404614
Epoch: 2025-05-08T14:09Z
Definitive object data (Epoch: 2025-05-08T14:09:30.861Z)
Latitude
-0°
Longitude
76.20956°
Altitude
599.092 km
Speed
7.552 km/s
True Right ascension
10h 20m 59s
True Declination
0° 00' 00"
Sunlit
Object was in daylight at TLE epoch
Visualization TLE readout
Latitude
-5.486°
Longitude
78.48487°
Altitude
599.875 km
Speed
7.551 km/s
Apparent Right ascension
07h 34m 23s
Apparent Declination
-48° 57' 18"
Sunlit
Object is in daylight
Visualization observer readout
Local Sidereal Time
12:52:55
Azimuth
224.633° SW
Elevation
-23.162°
Doppler factor
1
Orbital elements
Apogee altitude
601.046 km
Perigee altitude
554.756 km
Semi-major axis
6,956.038 km
Eccentricity
0.0033273
Inclination
97.5628°
RAAN
155.2464°
Arg. of periapsis
229.1439°
True anomaly
130.97812°
Mean anomaly
130.6898°
Eccentric anomaly
130.83404°
Mean motion
3.74111 °/min
BSTAR
0.00047032
Orbital period
96.23 mins
Loading maneuver chart data...
Loading SW <> Apogee altitude chart data...
Loading historical data...
Loading historical data...
Loading historical data...
Loading historical data...
Loading historical data...
Loading historical data...
Loading historical data...
Other satellites on launch #60 in the year 2017 (2017-10-09 UTC)

CZ-2D DEB Visibility forecast

Observer location: undefined°, undefined°

Span
Click to sort rows by Start time (UTC) header in descending order
Start Az.
Max El. time (UTC)
Max El. Az.
Max El.
End time (UTC)
End Az.
6 mins2025-05-10 14:54:26.355Z358.611° N2025-05-10 14:57:26.355Z277.296° WNW39.325°2025-05-10 15:00:26.355Z211.053° SW
7 mins2025-05-11 01:42:26.355Z162.421° S2025-05-11 01:45:26.355Z47.891° ENE44.606°2025-05-11 01:49:26.355Z349.987° N
|